Weather in Uspenivka

Ukraine / Zaporizhia Region     47°03′33″N   36°35′54″E
temp.,
°C
wind,
m/s
gust,
m/s
humid.,
%
clouds,
%
prec.,
mm/h
press.,
hPa
HPBL,
m
5 december, sun
sun523:00+3ene71094100 6.6 1009296
02:00+3ne5893100 9.4 1009269
05:00+3nne5991100 1.3 1008299
08:00+2n5790100 1.4 1010279
11:00+3n458594 0.0 1012308
14:00+3n4484100 0.0 1013364
17:00+2nne2491100 0.0 1015148
20:00+1ne2294100 0.0 101664
6 december, mon
mon623:00+1e119496 0.0 101717
02:00+1ese229499 0.0 101715
05:00+1ese229462 0.0 101724
08:00+3ese2593100 0.0 1018144
11:00+5ese3789100 0.0 1018264
14:00+6ese578597 0.1 1017320
17:00+5ese51092100 0.0 1018272
20:00+5ese41095100 0.0 1018204
7 december, tue
tue723:00+6ese4996100 0.0 1017181
02:00+7ese4995100 0.0 1017179
05:00+7ese4890100 0.0 1016162
08:00+6ese31089100 0.0 1015189
11:00+10ese51070100 0.0 1014285
14:00+10ese5967100 0.0 1012303
17:00+8e4977100 0.0 1011152
20:00+7e51178100 0.0 1010189
8 december, wed
wed823:00+6e511845 0.0 1009204
02:00+6e61287100 0.0 1008244
05:00+5e61291100 0.0 1006221
08:00+6e61289100 0.0 1006231
11:00+9ese61275100 0.0 1006332
14:00+9ese5973100 0.0 1006346
17:00+7e6108399 0.0 1006210
20:00+8se7167782 0.0 1006427
9 december, thu
thu923:00+8s6119498 0.0 1007471
02:00+8s61296100 0.1 1008541
05:00+7ssw81495100 0.5 1010634
08:00+7sw71295100 0.8 1012657
11:00+7sw61288100 0.3 1013646
14:00+8wsw61079100 0.3 1015844
17:00+7wsw5981100 0.0 1017655
20:00+6wsw588294 0.0 1018658